• In Portugal
  • List of Countries
  • For 7 days
  • Water Temperature
  • Satellite Maps
  • Weather Map
  • Weather Widgets
  • user-avatar
    Login

    Hourly Weather Florianópolis

    Today, 23 June, Saturday

    Time Temperature Precipitation Wind Pressure Humidity
    00:00 +16°C° 0 mm 3 mps 764 mmHg 94%
    01:00 +16°C° 0 mm 3 mps 763 mmHg 94%
    02:00 +16°C° 0 mm 3 mps 763 mmHg 93%
    03:00 +17°C° 0 mm 4 mps 763 mmHg 93%
    04:00 +17°C° 0 mm 4 mps 763 mmHg 94%
    05:00 +17°C° 0 mm 4 mps 762 mmHg 95%
    06:00 +15°C° 0 mm 4 mps 762 mmHg 95%
    07:00 +18°C° 0 mm 4 mps 762 mmHg 91%
    08:00 +19°C° 0 mm 4 mps 763 mmHg 86%
    09:00 +20°C° 0 mm 4 mps 763 mmHg 81%
    10:00 +23°C° 0 mm 4 mps 762 mmHg 71%
    11:00 +26°C° 0 mm 4 mps 762 mmHg 60%
    12:00 +29°C° 0 mm 4 mps 762 mmHg 50%
    13:00 +30°C° 0 mm 5 mps 761 mmHg 49%
    14:00 +30°C° 0 mm 5 mps 761 mmHg 47%
    15:00 +32°C° 0 mm 5 mps 760 mmHg 46%
    16:00 +28°C° 0 mm 4 mps 760 mmHg 58%
    17:00 +25°C° 0 mm 4 mps 761 mmHg 70%
    18:00 +22°C° 0 mm 4 mps 761 mmHg 82%
    19:00 +22°C° 0 mm 3 mps 761 mmHg 84%
    20:00 +22°C° 0 mm 3 mps 762 mmHg 86%
    21:00 +21°C° 0 mm 3 mps 762 mmHg 88%
    22:00 +21°C° 0 mm 3 mps 762 mmHg 89%
    23:00 +21°C° 0 mm 3 mps 762 mmHg 90%

    Tomorrow, 24 June, Sunday

    Time Temperature Precipitation Wind Pressure Humidity
    00:00 +20°C° 0 mm 3 mps 762 mmHg 91%
    01:00 +20°C° 0 mm 3 mps 762 mmHg 91%
    02:00 +20°C° 0 mm 3 mps 762 mmHg 90%
    03:00 +20°C° 0 mm 3 mps 762 mmHg 90%
    04:00 +19°C° 0 mm 3 mps 762 mmHg 92%
    05:00 +19°C° 0 mm 4 mps 763 mmHg 94%
    06:00 +17°C° 0 mm 5 mps 763 mmHg 96%
    07:00 +19°C° 0 mm 5 mps 763 mmHg 94%
    08:00 +19°C° 0 mm 5 mps 764 mmHg 92%
    09:00 +20°C° 0 mm 6 mps 765 mmHg 89%
    10:00 +21°C° 0 mm 5 mps 765 mmHg 85%
    11:00 +21°C° 0 mm 5 mps 765 mmHg 82%
    12:00 +21°C° 0 mm 5 mps 765 mmHg 78%
    13:00 +20°C° 0.1 mm 5 mps 765 mmHg 82%
    14:00 +20°C° 0.1 mm 5 mps 765 mmHg 87%
    15:00 +19°C° 0.1 mm 5 mps 764 mmHg 91%
    16:00 +18°C° 0.1 mm 4 mps 765 mmHg 93%
    17:00 +18°C° 0.1 mm 4 mps 765 mmHg 94%
    18:00 +18°C° 0.1 mm 4 mps 765 mmHg 96%
    19:00 +18°C° 0.1 mm 3 mps 765 mmHg 96%
    20:00 +18°C° 0.1 mm 3 mps 765 mmHg 97%
    21:00 +17°C° 0.1 mm 2 mps 766 mmHg 97%
    22:00 +17°C° 0.1 mm 2 mps 766 mmHg 98%
    23:00 +17°C° 0.1 mm 2 mps 765 mmHg 98%

    Day after tomorrow, 25 June, Monday

    Time Temperature Precipitation Wind Pressure Humidity
    00:00 +17°C° 0.1 mm 2 mps 765 mmHg 98%
    01:00 +18°C° 0.1 mm 2 mps 765 mmHg 98%
    02:00 +18°C° 0.1 mm 3 mps 764 mmHg 98%
    03:00 +18°C° 0.1 mm 3 mps 764 mmHg 98%
    04:00 +18°C° 0.1 mm 3 mps 763 mmHg 98%
    05:00 +18°C° 0.1 mm 3 mps 763 mmHg 98%
    06:00 +18°C° 0.1 mm 4 mps 763 mmHg 98%
    07:00 +19°C° 0 mm 4 mps 763 mmHg 96%
    08:00 +20°C° 0 mm 5 mps 763 mmHg 94%
    09:00 +20°C° 0 mm 5 mps 763 mmHg 93%
    10:00 +22°C° 0 mm 5 mps 763 mmHg 84%
    11:00 +25°C° 0 mm 5 mps 762 mmHg 76%
    12:00 +26°C° 0 mm 5 mps 762 mmHg 68%
    13:00 +27°C° 0 mm 5 mps 761 mmHg 63%
    14:00 +28°C° 0 mm 5 mps 760 mmHg 59%
    15:00 +29°C° 0 mm 6 mps 759 mmHg 55%
    16:00 +27°C° 0 mm 5 mps 759 mmHg 67%
    17:00 +25°C° 0 mm 5 mps 759 mmHg 79%
    18:00 +22°C° 0 mm 4 mps 759 mmHg 90%
    19:00 +21°C° 0 mm 4 mps 760 mmHg 92%
    20:00 +21°C° 0 mm 3 mps 760 mmHg 94%
    21:00 +21°C° 0 mm 2 mps 761 mmHg 95%
    22:00 +20°C° 0 mm 3 mps 761 mmHg 96%
    23:00 +20°C° 0 mm 3 mps 761 mmHg 97%

    26 June, Tuesday

    Time Temperature Precipitation Wind Pressure Humidity
    00:00 +19°C° 0 mm 3 mps 761 mmHg 98%
    01:00 +19°C° 0 mm 3 mps 761 mmHg 98%
    02:00 +19°C° 0 mm 3 mps 761 mmHg 98%
    03:00 +19°C° 0 mm 3 mps 760 mmHg 98%
    04:00 +19°C° 0.7 mm 3 mps 761 mmHg 98%
    05:00 +19°C° 0.7 mm 3 mps 761 mmHg 98%
    06:00 +19°C° 0.7 mm 2 mps 761 mmHg 99%
    07:00 +20°C° 0.7 mm 2 mps 761 mmHg 99%
    08:00 +20°C° 0.7 mm 2 mps 762 mmHg 98%
    09:00 +20°C° 0.7 mm 2 mps 762 mmHg 98%
    10:00 +21°C° 0.6 mm 2 mps 762 mmHg 97%
    11:00 +21°C° 0.6 mm 2 mps 762 mmHg 96%
    12:00 +23°C° 0.6 mm 1 mps 762 mmHg 96%
    13:00 +21°C° 0.2 mm 2 mps 762 mmHg 96%
    14:00 +21°C° 0.2 mm 2 mps 761 mmHg 97%
    15:00 +21°C° 0.2 mm 2 mps 761 mmHg 98%
    16:00 +21°C° 0.1 mm 2 mps 761 mmHg 98%
    17:00 +21°C° 0.1 mm 2 mps 761 mmHg 99%
    18:00 +20°C° 0.1 mm 2 mps 762 mmHg 99%
    19:00 +20°C° 0.1 mm 2 mps 762 mmHg 99%
    20:00 +20°C° 0.1 mm 2 mps 762 mmHg 99%
    21:00 +20°C° 0.1 mm 2 mps 763 mmHg 99%
    22:00 +21°C° 0.2 mm 1 mps 763 mmHg 99%
    23:00 +21°C° 0.2 mm 1 mps 763 mmHg 99%

    27 June, Wednesday

    Time Temperature Precipitation Wind Pressure Humidity
    00:00 +21°C° 0.2 mm 1 mps 763 mmHg 99%
    01:00 +21°C° 0.3 mm 1 mps 762 mmHg 99%
    02:00 +21°C° 0.3 mm 1 mps 762 mmHg 99%
    03:00 +21°C° 0.3 mm 1 mps 762 mmHg 99%
    04:00 +21°C° 0.3 mm 1 mps 762 mmHg 99%
    05:00 +21°C° 0.3 mm 1 mps 762 mmHg 99%
    06:00 +21°C° 0.3 mm 1 mps 762 mmHg 99%
    07:00 +21°C° 0.3 mm 1 mps 763 mmHg 99%
    08:00 +20°C° 0.3 mm 2 mps 763 mmHg 99%
    09:00 +21°C° 0.3 mm 2 mps 763 mmHg 98%
    10:00 +23°C° 0.1 mm 2 mps 763 mmHg 94%
    11:00 +24°C° 0.1 mm 2 mps 763 mmHg 90%
    12:00 +25°C° 0.1 mm 3 mps 763 mmHg 85%
    13:00 +25°C° 0 mm 2 mps 762 mmHg 81%
    14:00 +26°C° 0 mm 2 mps 762 mmHg 77%
    15:00 +27°C° 0 mm 2 mps 761 mmHg 73%
    16:00 +25°C° 0 mm 2 mps 762 mmHg 81%
    17:00 +24°C° 0 mm 2 mps 762 mmHg 89%
    18:00 +22°C° 0 mm 1 mps 762 mmHg 97%
    19:00 +22°C° 0 mm 1 mps 762 mmHg 98%
    20:00 +21°C° 0 mm 1 mps 763 mmHg 98%
    21:00 +19°C° 0 mm 0 mps 763 mmHg 99%
    22:00 +19°C° 0 mm 0 mps 763 mmHg 99%
    23:00 +19°C° 0 mm 0 mps 763 mmHg 99%

    28 June, Thursday

    Time Temperature Precipitation Wind Pressure Humidity
    00:00 +18°C° 0 mm 0 mps 763 mmHg 99%
    01:00 +18°C° 0 mm 0 mps 764 mmHg 99%
    02:00 +18°C° 0 mm 0 mps 764 mmHg 99%
    03:00 +18°C° 0 mm 0 mps 764 mmHg 99%
    04:00 +18°C° 0 mm 0 mps 764 mmHg 99%
    05:00 +18°C° 0 mm 0 mps 764 mmHg 99%
    06:00 +17°C° 0 mm 0 mps 764 mmHg 99%
    07:00 +18°C° 0 mm 0 mps 764 mmHg 97%
    08:00 +19°C° 0 mm 0 mps 765 mmHg 96%
    09:00 +22°C° 0 mm 1 mps 765 mmHg 94%
    10:00 +23°C° 0 mm 1 mps 765 mmHg 87%
    11:00 +25°C° 0 mm 1 mps 764 mmHg 79%
    12:00 +27°C° 0 mm 2 mps 764 mmHg 72%
    13:00 +27°C° 0 mm 2 mps 763 mmHg 72%
    14:00 +27°C° 0 mm 3 mps 763 mmHg 73%
    15:00 +27°C° 0 mm 3 mps 762 mmHg 74%
    16:00 +25°C° 0 mm 3 mps 762 mmHg 81%
    17:00 +24°C° 0 mm 3 mps 762 mmHg 88%
    18:00 +22°C° 0 mm 3 mps 762 mmHg 95%
    19:00 +22°C° 0 mm 3 mps 763 mmHg 95%
    20:00 +21°C° 0 mm 3 mps 763 mmHg 96%
    21:00 +21°C° 0 mm 3 mps 763 mmHg 97%
    22:00 +21°C° 0 mm 3 mps 763 mmHg 96%
    23:00 +21°C° 0 mm 3 mps 763 mmHg 96%
    Show more